TimeEDT,TemperatureF,Dew PointF,Humidity,Sea Level PressureIn,VisibilityMPH,Wind Direction,Wind SpeedMPH,Gust SpeedMPH,PrecipitationIn,Events,Conditions,WindDirDegrees,DateUTC
12:55 AM,66.2,63.0,89,30.04,10.0,WNW,5.8,-,N/A,,Mostly Cloudy,300,2012-11-01 04:55:00
1:55 AM,66.2,63.5,91,30.04,10.0,WNW,6.9,-,N/A,,Partly Cloudy,300,2012-11-01 05:55:00
2:55 AM,66.2,62.2,87,30.03,10.0,NW,4.6,-,N/A,,Partly Cloudy,310,2012-11-01 06:55:00
3:55 AM,65.7,61.2,85,30.02,10.0,NW,3.5,-,N/A,,Partly Cloudy,310,2012-11-01 07:55:00
4:55 AM,66.4,61.9,85,30.01,10.0,WNW,3.5,-,N/A,,Scattered Clouds,300,2012-11-01 08:55:00
5:55 AM,64.0,59.7,86,30.01,10.0,Calm,Calm,-,N/A,,Mostly Cloudy,0,2012-11-01 09:55:00
6:55 AM,62.8,60.8,93,30.02,10.0,Calm,Calm,-,N/A,,Partly Cloudy,0,2012-11-01 10:55:00
7:55 AM,60.6,58.5,93,30.03,10.0,Calm,Calm,-,N/A,,Mostly Cloudy,0,2012-11-01 11:55:00
8:55 AM,65.5,64.4,96,30.05,10.0,Calm,Calm,-,N/A,,Mostly Cloudy,0,2012-11-01 12:55:00
9:55 AM,70.5,66.7,88,30.06,10.0,Calm,Calm,-,N/A,,Scattered Clouds,0,2012-11-01 13:55:00
10:55 AM,75.0,67.1,76,30.07,10.0,Variable,4.6,-,N/A,,Scattered Clouds,0,2012-11-01 14:55:00
11:55 AM,74.1,67.3,79,30.06,10.0,Calm,Calm,-,N/A,,Scattered Clouds,0,2012-11-01 15:55:00
12:55 PM,74.1,67.5,80,30.04,10.0,NNW,4.6,-,N/A,,Mostly Cloudy,330,2012-11-01 16:55:00
1:55 PM,75.2,67.3,76,30.01,10.0,NNW,9.2,-,N/A,,Partly Cloudy,330,2012-11-01 17:55:00
2:55 PM,75.0,66.4,74,29.99,10.0,NW,8.1,-,N/A,,Partly Cloudy,310,2012-11-01 18:55:00
3:55 PM,75.7,65.1,69,29.99,10.0,NW,5.8,-,N/A,,Clear,320,2012-11-01 19:55:00
4:55 PM,74.5,66.6,76,29.98,10.0,NNW,9.2,-,N/A,,Overcast,330,2012-11-01 20:55:00
5:55 PM,74.1,66.2,76,29.98,10.0,NW,8.1,-,N/A,,Scattered Clouds,320,2012-11-01 21:55:00
6:55 PM,69.8,66.2,88,29.99,10.0,Calm,Calm,-,N/A,,Clear,0,2012-11-01 22:55:00
7:55 PM,66.6,63.0,88,30.00,10.0,Calm,Calm,-,N/A,,Clear,0,2012-11-01 23:55:00
8:55 PM,64.8,61.9,90,30.01,10.0,Calm,Calm,-,N/A,,Clear,0,2012-11-02 00:55:00
9:55 PM,63.3,61.3,93,30.03,10.0,Calm,Calm,-,N/A,,Clear,0,2012-11-02 01:55:00
10:55 PM,62.1,61.5,98,30.04,10.0,Calm,Calm,-,N/A,,Clear,0,2012-11-02 02:55:00
11:31 PM,60.8,60.8,100,30.04,5.0,Calm,Calm,-,N/A,,Clear,0,2012-11-02 03:31:00
11:37 PM,60.8,59.0,94,30.05,3.0,Calm,Calm,-,N/A,,Clear,0,2012-11-02 03:37:00
11:41 PM,60.8,59.0,94,30.05,2.5,Calm,Calm,-,N/A,,Clear,0,2012-11-02 03:41:00
11:42 PM,60.8,59.0,94,30.05,3.0,Calm,Calm,-,N/A,,Clear,0,2012-11-02 03:42:00
11:43 PM,60.8,59.0,94,30.05,3.0,Calm,Calm,-,N/A,,Clear,0,2012-11-02 03:43:00
11:49 PM,60.8,59.0,94,30.05,2.5,Calm,Calm,-,N/A,,Clear,0,2012-11-02 03:49:00
11:54 PM,59.0,59.0,100,30.05,2.0,Calm,Calm,-,N/A,,Clear,0,2012-11-02 03:54:00
11:55 PM,59.7,58.3,95,30.05,2.0,Calm,Calm,-,N/A,,Clear,0,2012-11-02 03:55:00
11:57 PM,59.0,59.0,100,30.05,1.2,Calm,Calm,-,N/A,,Clear,0,2012-11-02 03:57:00
11:58 PM,59.0,57.2,94,30.05,1.0,Calm,Calm,-,N/A,,Clear,0,2012-11-02 03:58:00